Time,TemperatureF,DewpointF,PressureIn,WindDirection,WindDirectionDegrees,WindSpeedMPH,WindSpeedGustMPH,Humidity,HourlyPrecipIn,Conditions,Clouds,dailyrainin,SoftwareType,DateUTC
2013-02-27 00:00:00,22.8,4.7,30.24,South,170,2.7,3.1,45,0.00,,---,0.00,VWS V14.01,2013-02-27 07:00:00,
2013-02-27 00:05:00,23.0,4.8,30.24,SSW,196,5.8,6.7,45,0.00,,---,0.00,VWS V14.01,2013-02-27 07:05:00,
2013-02-27 00:10:00,23.2,5.0,30.24,SSE,151,2.7,6.7,45,0.00,,---,0.00,VWS V14.01,2013-02-27 07:10:00,
2013-02-27 00:15:00,22.8,4.7,30.24,East,86,4.0,4.0,45,0.00,,---,0.00,VWS V14.01,2013-02-27 07:15:00,
2013-02-27 00:20:00,22.8,4.7,30.24,SSE,159,5.4,6.3,45,0.00,,---,0.00,VWS V14.01,2013-02-27 07:20:00,
2013-02-27 00:25:00,22.8,4.7,30.24,South,170,3.6,6.3,45,0.00,,---,0.00,VWS V14.01,2013-02-27 07:25:00,
2013-02-27 00:30:00,22.8,4.7,30.24,South,172,3.1,3.1,45,0.00,,---,0.00,VWS V14.01,2013-02-27 07:30:00,
2013-02-27 00:35:00,22.5,4.3,30.24,South,187,0.0,4.9,45,0.00,,---,0.00,VWS V14.01,2013-02-27 07:35:00,
2013-02-27 00:40:00,21.9,3.8,30.24,South,178,0.0,4.9,45,0.00,,---,0.00,VWS V14.01,2013-02-27 07:40:00,
2013-02-27 00:45:00,21.7,3.7,30.24,SE,140,3.1,4.9,45,0.00,,---,0.00,VWS V14.01,2013-02-27 07:45:00,
2013-02-27 00:50:00,21.7,3.7,30.24,SSE,147,2.7,4.9,45,0.00,,---,0.00,VWS V14.01,2013-02-27 07:50:00,
2013-02-27 00:55:00,21.6,3.5,30.24,SE,146,2.7,4.9,45,0.00,,---,0.00,VWS V14.01,2013-02-27 07:55:00,
2013-02-27 01:00:00,21.6,3.5,30.24,SSE,153,2.2,4.9,45,0.00,,---,0.00,VWS V14.01,2013-02-27 08:00:00,
2013-02-27 01:05:00,21.6,4.0,30.24,SSE,149,4.9,4.9,46,0.00,,---,0.00,VWS V14.01,2013-02-27 08:05:00,
2013-02-27 01:10:00,21.6,4.0,30.24,South,172,4.9,5.4,46,0.00,,---,0.00,VWS V14.01,2013-02-27 08:10:00,
2013-02-27 01:15:00,21.7,4.2,30.24,SE,124,2.7,3.1,46,0.00,,---,0.00,VWS V14.01,2013-02-27 08:15:00,
2013-02-27 01:20:00,21.7,4.6,30.24,SE,144,3.1,4.5,47,0.00,,---,0.00,VWS V14.01,2013-02-27 08:20:00,
2013-02-27 01:25:00,21.9,4.3,30.24,SE,137,3.1,4.5,46,0.00,,---,0.00,VWS V14.01,2013-02-27 08:25:00,
2013-02-27 01:30:00,22.1,4.5,30.24,SE,136,4.0,4.0,46,0.00,,---,0.00,VWS V14.01,2013-02-27 08:30:00,
2013-02-27 01:36:00,22.3,4.7,30.24,South,175,2.2,4.0,46,0.00,,---,0.00,VWS V14.01,2013-02-27 08:36:00,
2013-02-27 01:41:00,21.9,4.3,30.24,SE,142,0.0,4.0,46,0.00,,---,0.00,VWS V14.01,2013-02-27 08:41:00,
2013-02-27 01:46:00,21.7,4.2,30.24,SE,144,3.1,4.0,46,0.00,,---,0.00,VWS V14.01,2013-02-27 08:46:00,
2013-02-27 01:51:00,21.9,4.8,30.24,SSE,157,3.6,5.4,47,0.00,,---,0.00,VWS V14.01,2013-02-27 08:51:00,
2013-02-27 01:56:00,22.5,5.3,30.24,ESE,113,3.6,5.4,47,0.00,,---,0.00,VWS V14.01,2013-02-27 08:56:00,
2013-02-27 02:01:00,22.6,5.5,30.24,SSE,160,3.1,3.6,47,0.00,,---,0.00,VWS V14.01,2013-02-27 09:01:00,
2013-02-27 02:06:00,22.8,5.6,30.24,SE,134,3.6,5.4,47,0.00,,---,0.00,VWS V14.01,2013-02-27 09:06:00,
2013-02-27 02:11:00,23.0,5.8,30.24,SE,139,3.1,5.4,47,0.00,,---,0.00,VWS V14.01,2013-02-27 09:11:00,
2013-02-27 02:16:00,23.0,5.3,30.24,ESE,122,3.1,5.4,46,0.00,,---,0.00,VWS V14.01,2013-02-27 09:16:00,
2013-02-27 02:21:00,23.0,5.3,30.24,SE,140,2.2,5.4,46,0.00,,---,0.00,VWS V14.01,2013-02-27 09:21:00,
2013-02-27 02:26:00,23.2,5.5,30.24,SE,131,3.1,5.4,46,0.00,,---,0.00,VWS V14.01,2013-02-27 09:26:00,
2013-02-27 02:31:00,23.4,5.7,30.24,SSE,152,4.0,4.0,46,0.00,,---,0.00,VWS V14.01,2013-02-27 09:31:00,
2013-02-27 02:36:00,23.5,5.8,30.24,South,170,4.5,5.8,46,0.00,,---,0.00,VWS V14.01,2013-02-27 09:36:00,
2013-02-27 02:41:00,23.7,6.0,30.24,South,178,3.1,5.8,46,0.00,,---,0.00,VWS V14.01,2013-02-27 09:41:00,
2013-02-27 02:46:00,23.5,5.3,30.24,SSE,168,0.0,0.0,45,0.00,,---,0.00,VWS V14.01,2013-02-27 09:46:00,
2013-02-27 02:51:00,23.4,5.2,30.24,SE,142,3.1,3.1,45,0.00,,---,0.00,VWS V14.01,2013-02-27 09:51:00,
2013-02-27 02:56:00,23.5,5.3,30.24,SE,131,3.1,4.0,45,0.00,,---,0.00,VWS V14.01,2013-02-27 09:56:00,
2013-02-27 03:01:00,23.5,5.3,30.24,SE,145,3.6,3.6,45,0.00,,---,0.00,VWS V14.01,2013-02-27 10:01:00,
2013-02-27 03:06:00,23.5,5.3,30.24,SSE,151,0.0,4.0,45,0.00,,---,0.00,VWS V14.01,2013-02-27 10:06:00,
2013-02-27 03:11:00,23.5,5.3,30.24,SSE,153,4.0,4.9,45,0.00,,---,0.00,VWS V14.01,2013-02-27 10:11:00,
2013-02-27 03:16:00,23.7,5.5,30.24,South,173,4.0,4.9,45,0.00,,---,0.00,VWS V14.01,2013-02-27 10:16:00,
2013-02-27 03:21:00,23.7,5.0,30.24,SE,146,2.7,4.9,44,0.00,,---,0.00,VWS V14.01,2013-02-27 10:21:00,
2013-02-27 03:26:00,23.7,5.0,30.24,SSE,156,2.7,5.4,44,0.00,,---,0.00,VWS V14.01,2013-02-27 10:26:00,
2013-02-27 03:31:00,23.7,5.0,30.24,SSW,205,3.1,4.0,44,0.00,,---,0.00,VWS V14.01,2013-02-27 10:31:00,
2013-02-27 03:36:00,23.9,5.2,30.24,SE,130,3.1,4.0,44,0.00,,---,0.00,VWS V14.01,2013-02-27 10:36:00,
2013-02-27 03:41:00,23.7,5.0,30.24,SSW,209,0.0,4.0,44,0.00,,---,0.00,VWS V14.01,2013-02-27 10:41:00,
2013-02-27 03:46:00,23.5,4.8,30.24,SSW,209,0.0,0.0,44,0.00,,---,0.00,VWS V14.01,2013-02-27 10:46:00,
2013-02-27 03:51:00,23.7,5.0,30.24,SSW,193,2.7,3.6,44,0.00,,---,0.00,VWS V14.01,2013-02-27 10:51:00,
2013-02-27 03:56:00,23.7,5.0,30.24,South,173,3.1,3.6,44,0.00,,---,0.00,VWS V14.01,2013-02-27 10:56:00,
2013-02-27 04:01:00,23.9,5.2,30.24,SSE,158,0.0,3.1,44,0.00,,---,0.00,VWS V14.01,2013-02-27 11:01:00,
2013-02-27 04:06:00,24.3,5.5,30.24,South,180,3.6,5.8,44,0.00,,---,0.00,VWS V14.01,2013-02-27 11:06:00,
2013-02-27 04:11:00,24.4,5.2,30.24,SSE,167,3.1,5.8,43,0.00,,---,0.00,VWS V14.01,2013-02-27 11:11:00,
2013-02-27 04:16:00,24.4,5.2,30.24,SSE,153,4.9,5.4,43,0.00,,---,0.00,VWS V14.01,2013-02-27 11:16:00,
2013-02-27 04:21:00,24.4,5.2,30.24,SE,142,3.1,5.4,43,0.00,,---,0.00,VWS V14.01,2013-02-27 11:21:00,
2013-02-27 04:26:00,24.4,5.2,30.24,SE,140,4.9,6.3,43,0.00,,---,0.00,VWS V14.01,2013-02-27 11:26:00,
2013-02-27 04:31:00,24.3,5.0,30.24,SSE,152,3.6,4.0,43,0.00,,---,0.00,VWS V14.01,2013-02-27 11:31:00,
2013-02-27 04:36:00,24.3,5.0,30.24,SSE,148,4.0,5.4,43,0.00,,---,0.00,VWS V14.01,2013-02-27 11:36:00,
2013-02-27 04:41:00,24.3,5.0,30.24,SSE,148,2.7,5.4,43,0.00,,---,0.00,VWS V14.01,2013-02-27 11:41:00,
2013-02-27 04:46:00,24.3,5.0,30.24,South,183,4.0,5.8,43,0.00,,---,0.00,VWS V14.01,2013-02-27 11:46:00,
2013-02-27 04:51:00,24.4,5.2,30.24,SE,128,3.6,5.8,43,0.00,,---,0.00,VWS V14.01,2013-02-27 11:51:00,
2013-02-27 04:56:00,24.4,5.2,30.24,SE,135,5.4,6.3,43,0.00,,---,0.00,VWS V14.01,2013-02-27 11:56:00,
2013-02-27 05:01:00,24.4,5.2,30.24,SSE,164,0.0,3.6,43,0.00,,---,0.00,VWS V14.01,2013-02-27 12:01:00,
2013-02-27 05:06:00,24.4,5.2,30.24,SSE,164,3.6,4.9,43,0.00,,---,0.00,VWS V14.01,2013-02-27 12:06:00,
2013-02-27 05:11:00,24.4,5.2,30.24,SE,133,4.0,6.3,43,0.00,,---,0.00,VWS V14.01,2013-02-27 12:11:00,
2013-02-27 05:16:00,24.6,5.3,30.24,South,174,4.9,6.3,43,0.00,,---,0.00,VWS V14.01,2013-02-27 12:16:00,
2013-02-27 05:21:00,24.8,5.5,30.24,SSE,162,5.4,6.3,43,0.00,,---,0.00,VWS V14.01,2013-02-27 12:21:00,
2013-02-27 05:26:00,24.8,5.5,30.24,SE,135,3.1,6.3,43,0.00,,---,0.00,VWS V14.01,2013-02-27 12:26:00,
2013-02-27 05:31:00,24.8,5.0,30.24,SE,135,3.6,5.8,42,0.00,,---,0.00,VWS V14.01,2013-02-27 12:31:00,
2013-02-27 05:36:00,24.8,5.0,30.24,SSE,160,6.3,7.2,42,0.00,,---,0.00,VWS V14.01,2013-02-27 12:36:00,
2013-02-27 05:41:00,24.6,4.8,30.24,SE,146,3.6,7.2,42,0.00,,---,0.00,VWS V14.01,2013-02-27 12:41:00,
2013-02-27 05:46:00,24.4,4.7,30.24,SSE,148,4.9,4.9,42,0.00,,---,0.00,VWS V14.01,2013-02-27 12:46:00,
2013-02-27 05:52:00,24.1,4.3,30.24,SSE,168,2.2,5.4,42,0.00,,---,0.00,VWS V14.01,2013-02-27 12:52:00,
2013-02-27 05:57:00,23.7,4.0,30.24,SE,143,2.2,5.4,42,0.00,,---,0.00,VWS V14.01,2013-02-27 12:57:00,
2013-02-27 06:02:00,23.4,3.7,30.24,SSE,154,0.0,3.6,42,0.00,,---,0.00,VWS V14.01,2013-02-27 13:02:00,
2013-02-27 06:07:00,23.4,3.7,30.24,South,177,2.7,3.6,42,0.00,,---,0.00,VWS V14.01,2013-02-27 13:07:00,
2013-02-27 06:12:00,23.4,4.2,30.24,SSE,166,4.0,4.0,43,0.00,,---,0.00,VWS V14.01,2013-02-27 13:12:00,
2013-02-27 06:17:00,23.5,4.3,30.24,SSE,160,3.6,4.0,43,0.00,,---,0.00,VWS V14.01,2013-02-27 13:17:00,
2013-02-27 06:22:00,23.7,4.5,30.24,SSE,162,2.2,4.0,43,0.00,,---,0.00,VWS V14.01,2013-02-27 13:22:00,
2013-02-27 06:27:00,23.7,4.5,30.24,SSE,152,2.2,4.0,43,0.00,,---,0.00,VWS V14.01,2013-02-27 13:27:00,
2013-02-27 06:32:00,23.7,4.5,30.24,ESE,104,2.7,5.4,43,0.00,,---,0.00,VWS V14.01,2013-02-27 13:32:00,
2013-02-27 06:37:00,24.1,4.8,30.24,South,182,2.7,5.4,43,0.00,,---,0.00,VWS V14.01,2013-02-27 13:37:00,
2013-02-27 06:42:00,24.4,5.2,30.24,SSE,153,5.8,5.8,43,0.00,,---,0.00,VWS V14.01,2013-02-27 13:42:00,
2013-02-27 06:47:00,25.0,5.1,30.24,SSE,154,2.7,5.8,42,0.00,,---,0.00,VWS V14.01,2013-02-27 13:47:00,
2013-02-27 06:52:00,25.3,5.5,30.24,SSW,208,3.6,7.6,42,0.00,,---,0.00,VWS V14.01,2013-02-27 13:52:00,
2013-02-27 06:57:00,25.5,5.6,30.24,South,191,3.6,7.6,42,0.00,,---,0.00,VWS V14.01,2013-02-27 13:57:00,
2013-02-27 07:02:00,25.7,5.8,30.24,SSE,154,3.1,6.3,42,0.00,,---,0.00,VWS V14.01,2013-02-27 14:02:00,
2013-02-27 07:07:00,25.7,5.8,30.24,SE,143,2.7,6.3,42,0.00,,---,0.00,VWS V14.01,2013-02-27 14:07:00,
2013-02-27 07:12:00,25.7,5.8,30.24,South,171,4.9,6.3,42,0.00,,---,0.00,VWS V14.01,2013-02-27 14:12:00,
2013-02-27 07:17:00,25.7,5.8,30.24,South,171,2.7,4.0,42,0.00,,---,0.00,VWS V14.01,2013-02-27 14:17:00,
2013-02-27 07:22:00,25.7,5.8,30.24,SSE,150,3.1,6.3,42,0.00,,---,0.00,VWS V14.01,2013-02-27 14:22:00,
2013-02-27 07:27:00,25.9,5.4,30.21,SW,218,3.1,6.3,41,0.00,,---,0.00,VWS V14.01,2013-02-27 14:27:00,
2013-02-27 07:32:00,26.1,5.6,30.21,South,178,3.1,4.5,41,0.00,,---,0.00,VWS V14.01,2013-02-27 14:32:00,
2013-02-27 07:37:00,26.2,5.8,30.21,SE,146,4.0,5.8,41,0.00,,---,0.00,VWS V14.01,2013-02-27 14:37:00,
2013-02-27 07:42:00,26.2,5.8,30.24,SSE,159,2.7,5.8,41,0.00,,---,0.00,VWS V14.01,2013-02-27 14:42:00,
2013-02-27 07:47:00,26.2,5.8,30.24,SE,131,3.1,3.6,41,0.00,,---,0.00,VWS V14.01,2013-02-27 14:47:00,
2013-02-27 07:52:00,26.1,5.6,30.24,SSE,153,4.0,5.8,41,0.00,,---,0.00,VWS V14.01,2013-02-27 14:52:00,
2013-02-27 07:57:00,26.1,5.6,30.24,SSE,151,6.3,7.6,41,0.00,,---,0.00,VWS V14.01,2013-02-27 14:57:00,
2013-02-27 08:02:00,26.1,5.6,30.24,SE,129,4.0,5.8,41,0.00,,---,0.00,VWS V14.01,2013-02-27 15:02:00,
2013-02-27 08:07:00,26.1,5.6,30.24,SE,130,5.8,7.6,41,0.00,,---,0.00,VWS V14.01,2013-02-27 15:07:00,
2013-02-27 08:12:00,26.1,5.6,30.24,SSE,161,5.8,7.6,41,0.00,,---,0.00,VWS V14.01,2013-02-27 15:12:00,
2013-02-27 08:17:00,26.2,5.8,30.24,SSE,156,5.4,6.7,41,0.00,,---,0.00,VWS V14.01,2013-02-27 15:17:00,
2013-02-27 08:22:00,26.4,5.9,30.24,SSE,147,7.6,7.6,41,0.00,,---,0.00,VWS V14.01,2013-02-27 15:22:00,
2013-02-27 08:27:00,26.6,6.1,30.24,SE,141,5.8,7.6,41,0.00,,---,0.00,VWS V14.01,2013-02-27 15:27:00,
2013-02-27 08:32:00,27.0,6.4,30.24,ESE,103,4.0,5.4,41,0.00,,---,0.00,VWS V14.01,2013-02-27 15:32:00,
2013-02-27 08:37:00,27.1,6.6,30.24,SE,145,4.9,6.3,41,0.00,,---,0.00,VWS V14.01,2013-02-27 15:37:00,
2013-02-27 08:42:00,27.3,6.2,30.24,SE,143,2.7,6.3,40,0.00,,---,0.00,VWS V14.01,2013-02-27 15:42:00,
2013-02-27 08:47:00,27.7,6.5,30.24,ESE,117,3.6,5.4,40,0.00,,---,0.00,VWS V14.01,2013-02-27 15:47:00,
2013-02-27 08:52:00,28.0,6.8,30.24,SE,127,3.1,6.3,40,0.00,,---,0.00,VWS V14.01,2013-02-27 15:52:00,
2013-02-27 08:57:00,28.4,7.2,30.24,ESE,110,0.0,6.3,40,0.00,,---,0.00,VWS V14.01,2013-02-27 15:57:00,
2013-02-27 09:02:00,29.1,7.3,30.24,SE,139,3.1,4.9,39,0.00,,---,0.00,VWS V14.01,2013-02-27 16:02:00,
2013-02-27 09:07:00,29.7,7.8,30.24,SE,138,5.4,6.3,39,0.00,,---,0.00,VWS V14.01,2013-02-27 16:07:00,
2013-02-27 09:12:00,30.4,7.8,30.24,South,175,4.0,6.3,38,0.00,,---,0.00,VWS V14.01,2013-02-27 16:12:00,
2013-02-27 09:17:00,32.0,9.3,30.24,SSE,158,3.1,5.8,38,0.00,,---,0.00,VWS V14.01,2013-02-27 16:17:00,
2013-02-27 09:22:00,33.3,10.4,30.24,South,190,5.8,5.8,38,0.00,,---,0.00,VWS V14.01,2013-02-27 16:22:00,
2013-02-27 09:27:00,34.5,9.7,30.24,SSE,153,6.3,7.6,35,0.00,,---,0.00,VWS V14.01,2013-02-27 16:27:00,
2013-02-27 09:32:00,34.5,9.1,30.24,SW,221,2.7,8.3,34,0.00,,---,0.00,VWS V14.01,2013-02-27 16:32:00,
2013-02-27 09:37:00,35.4,9.2,30.24,South,191,4.9,8.3,33,0.00,,---,0.00,VWS V14.01,2013-02-27 16:37:00,
2013-02-27 09:42:00,37.0,9.2,30.24,SSW,208,6.3,8.7,31,0.00,,---,0.00,VWS V14.01,2013-02-27 16:42:00,
2013-02-27 09:47:00,37.0,8.5,30.24,SSE,152,3.1,10.1,30,0.00,,---,0.00,VWS V14.01,2013-02-27 16:47:00,
2013-02-27 09:52:00,36.5,8.0,30.24,SSW,211,4.0,10.1,30,0.00,,---,0.00,VWS V14.01,2013-02-27 16:52:00,
2013-02-27 09:57:00,36.3,7.9,30.24,South,189,4.0,10.1,30,0.00,,---,0.00,VWS V14.01,2013-02-27 16:57:00,
2013-02-27 10:02:00,36.1,7.7,30.24,ESE,123,10.5,12.8,30,0.00,,---,0.00,VWS V14.01,2013-02-27 17:02:00,
2013-02-27 10:07:00,37.0,8.5,30.24,SE,125,5.4,12.8,30,0.00,,---,0.00,VWS V14.01,2013-02-27 17:07:00,
2013-02-27 10:12:00,36.5,8.0,30.21,South,182,10.5,12.8,30,0.00,,---,0.00,VWS V14.01,2013-02-27 17:12:00,
2013-02-27 10:17:00,36.1,7.7,30.21,SSE,148,10.5,15.4,30,0.00,,---,0.00,VWS V14.01,2013-02-27 17:17:00,
2013-02-27 10:22:00,37.2,8.6,30.21,South,182,8.3,15.4,30,0.00,,---,0.00,VWS V14.01,2013-02-27 17:22:00,
2013-02-27 10:27:00,37.6,8.2,30.24,SSE,147,11.0,15.4,29,0.00,,---,0.00,VWS V14.01,2013-02-27 17:27:00,
2013-02-27 10:32:00,37.8,8.4,30.24,South,179,4.0,11.0,29,0.00,,---,0.00,VWS V14.01,2013-02-27 17:32:00,
2013-02-27 10:37:00,37.6,8.2,30.24,SSE,165,6.3,12.8,29,0.00,,---,0.00,VWS V14.01,2013-02-27 17:37:00,
2013-02-27 10:42:00,37.4,8.1,30.24,South,169,10.5,13.2,29,0.00,,---,0.00,VWS V14.01,2013-02-27 17:42:00,
2013-02-27 10:47:00,37.2,7.9,30.24,SSE,159,14.1,14.1,29,0.00,,---,0.00,VWS V14.01,2013-02-27 17:47:00,
2013-02-27 10:52:00,37.4,8.1,30.24,South,170,8.3,14.1,29,0.00,,---,0.00,VWS V14.01,2013-02-27 17:52:00,
2013-02-27 10:57:00,38.8,9.3,30.24,South,183,4.9,14.1,29,0.00,,---,0.00,VWS V14.01,2013-02-27 17:57:00,
2013-02-27 11:02:00,40.3,9.8,30.24,SSE,158,10.5,11.4,28,0.00,,---,0.00,VWS V14.01,2013-02-27 18:02:00,
2013-02-27 11:07:00,40.8,10.2,30.24,SE,131,11.4,12.3,28,0.00,,---,0.00,VWS V14.01,2013-02-27 18:07:00,
2013-02-27 11:12:00,41.5,10.9,30.24,South,180,10.5,12.3,28,0.00,,---,0.00,VWS V14.01,2013-02-27 18:12:00,
2013-02-27 11:17:00,42.4,11.7,30.24,SSE,167,5.8,10.1,28,0.00,,---,0.00,VWS V14.01,2013-02-27 18:17:00,
2013-02-27 11:22:00,43.5,12.6,30.24,South,176,7.6,11.0,28,0.00,,---,0.00,VWS V14.01,2013-02-27 18:22:00,
2013-02-27 11:27:00,43.0,9.6,30.24,SSE,153,7.6,12.8,25,0.00,,---,0.00,VWS V14.01,2013-02-27 18:27:00,
2013-02-27 11:32:00,43.2,9.7,30.24,SSE,154,5.8,7.2,25,0.00,,---,0.00,VWS V14.01,2013-02-27 18:32:00,
2013-02-27 11:37:00,43.3,9.9,30.24,SE,126,5.8,11.0,25,0.00,,---,0.00,VWS V14.01,2013-02-27 18:37:00,
2013-02-27 11:42:00,42.6,10.1,30.21,SSE,158,8.3,13.2,26,0.00,,---,0.00,VWS V14.01,2013-02-27 18:42:00,
2013-02-27 11:47:00,42.6,10.1,30.21,South,176,7.6,14.5,26,0.00,,---,0.00,VWS V14.01,2013-02-27 18:47:00,
2013-02-27 11:52:00,43.2,9.7,30.21,SSE,154,5.8,14.5,25,0.00,,---,0.00,VWS V14.01,2013-02-27 18:52:00,
2013-02-27 11:57:00,43.3,9.9,30.21,SE,143,7.6,14.5,25,0.00,,---,0.00,VWS V14.01,2013-02-27 18:57:00,
2013-02-27 12:02:00,43.7,10.2,30.21,ESE,115,7.6,11.0,25,0.00,,---,0.00,VWS V14.01,2013-02-27 19:02:00,
2013-02-27 12:07:00,44.4,10.8,30.21,South,186,13.2,15.9,25,0.00,,---,0.00,VWS V14.01,2013-02-27 19:07:00,
2013-02-27 12:12:00,45.5,11.7,30.21,East,101,6.3,15.9,25,0.00,,---,0.00,VWS V14.01,2013-02-27 19:12:00,
2013-02-27 12:17:00,45.0,11.3,30.21,SSE,168,5.4,8.3,25,0.00,,---,0.00,VWS V14.01,2013-02-27 19:17:00,
2013-02-27 12:22:00,44.8,11.1,30.21,SE,131,4.0,10.1,25,0.00,,---,0.00,VWS V14.01,2013-02-27 19:22:00,
2013-02-27 12:27:00,44.6,11.0,30.24,SE,144,9.6,11.0,25,0.00,,---,0.00,VWS V14.01,2013-02-27 19:27:00,
2013-02-27 12:32:00,44.6,11.0,30.24,SE,143,5.8,6.7,25,0.00,,---,0.00,VWS V14.01,2013-02-27 19:32:00,
2013-02-27 12:37:00,44.8,11.1,30.24,East,100,8.1,8.7,25,0.00,,---,0.00,VWS V14.01,2013-02-27 19:37:00,
2013-02-27 12:42:00,45.5,11.7,30.21,SE,138,8.1,10.5,25,0.00,,---,0.00,VWS V14.01,2013-02-27 19:42:00,
2013-02-27 12:47:00,45.7,11.9,30.21,SSE,147,6.3,6.3,25,0.00,,---,0.00,VWS V14.01,2013-02-27 19:47:00,
2013-02-27 12:52:00,46.0,12.2,30.21,SE,127,6.3,7.6,25,0.00,,---,0.00,VWS V14.01,2013-02-27 19:52:00,
2013-02-27 12:57:00,46.9,12.1,30.21,SSE,150,4.0,8.1,24,0.00,,---,0.00,VWS V14.01,2013-02-27 19:57:00,
2013-02-27 13:02:00,47.3,12.4,30.21,SW,217,8.3,9.6,24,0.00,,---,0.00,VWS V14.01,2013-02-27 20:02:00,
2013-02-27 13:07:00,47.8,10.9,30.21,WSW,251,10.5,14.1,22,0.00,,---,0.00,VWS V14.01,2013-02-27 20:07:00,
2013-02-27 13:12:00,48.4,10.3,30.21,NW,314,3.6,15.4,21,0.00,,---,0.00,VWS V14.01,2013-02-27 20:12:00,
2013-02-27 13:17:00,50.0,11.6,30.21,ENE,77,2.7,3.1,21,0.00,,---,0.00,VWS V14.01,2013-02-27 20:17:00,
2013-02-27 13:22:00,50.7,12.2,30.21,ESE,103,3.6,11.0,21,0.00,,---,0.00,VWS V14.01,2013-02-27 20:22:00,
2013-02-27 13:27:00,51.1,12.5,30.21,SSW,192,10.5,12.8,21,0.00,,---,0.00,VWS V14.01,2013-02-27 20:27:00,
2013-02-27 13:32:00,50.9,12.4,30.21,WNW,284,0.0,5.8,21,0.00,,---,0.00,VWS V14.01,2013-02-27 20:32:00,
2013-02-27 13:37:00,52.2,13.4,30.21,SSE,160,0.0,10.1,21,0.00,,---,0.00,VWS V14.01,2013-02-27 20:37:00,
2013-02-27 13:42:00,51.4,12.8,30.21,SE,145,15.0,15.0,21,0.00,,---,0.00,VWS V14.01,2013-02-27 20:42:00,
2013-02-27 13:48:00,50.0,11.6,30.21,WSW,248,8.3,11.0,21,0.00,,---,0.00,VWS V14.01,2013-02-27 20:48:00,
2013-02-27 13:53:00,49.6,11.3,30.21,SSW,193,4.9,14.5,21,0.00,,---,0.00,VWS V14.01,2013-02-27 20:53:00,
2013-02-27 13:58:00,50.2,11.8,30.21,SSE,168,5.8,14.5,21,0.00,,---,0.00,VWS V14.01,2013-02-27 20:58:00,
2013-02-27 14:03:00,50.4,11.9,30.21,SSW,208,7.2,8.1,21,0.00,,---,0.00,VWS V14.01,2013-02-27 21:03:00,
2013-02-27 14:08:00,50.2,11.8,30.21,WSW,258,5.4,12.3,21,0.00,,---,0.00,VWS V14.01,2013-02-27 21:08:00,
2013-02-27 14:13:00,50.2,11.8,30.21,NE,50,4.0,12.3,21,0.00,,---,0.00,VWS V14.01,2013-02-27 21:13:00,
2013-02-27 14:18:00,50.5,12.1,30.21,West,265,0.0,4.5,21,0.00,,---,0.00,VWS V14.01,2013-02-27 21:18:00,
2013-02-27 14:23:00,51.1,12.5,30.21,NNW,330,5.8,7.6,21,0.00,,---,0.00,VWS V14.01,2013-02-27 21:23:00,
2013-02-27 14:28:00,51.6,13.0,30.21,NNE,17,0.0,7.6,21,0.00,,---,0.00,VWS V14.01,2013-02-27 21:28:00,
2013-02-27 14:33:00,51.8,13.1,30.21,NW,307,3.1,6.3,21,0.00,,---,0.00,VWS V14.01,2013-02-27 21:33:00,
2013-02-27 14:38:00,51.1,12.5,30.21,SSW,205,4.0,6.3,21,0.00,,---,0.00,VWS V14.01,2013-02-27 21:38:00,
2013-02-27 14:43:00,50.0,9.4,30.21,WNW,288,5.4,7.6,19,0.00,,---,0.00,VWS V14.01,2013-02-27 21:43:00,
2013-02-27 14:48:00,50.0,9.4,30.21,North,0,2.2,6.3,19,0.00,,---,0.00,VWS V14.01,2013-02-27 21:48:00,
2013-02-27 14:53:00,49.6,9.1,30.21,North,357,5.8,6.3,19,0.00,,---,0.00,VWS V14.01,2013-02-27 21:53:00,
2013-02-27 14:58:00,48.6,8.2,30.18,NE,38,3.1,6.3,19,0.00,,---,0.00,VWS V14.01,2013-02-27 21:58:00,
2013-02-27 15:03:00,47.7,7.4,30.18,ESE,118,2.7,8.7,19,0.00,,---,0.00,VWS V14.01,2013-02-27 22:03:00,
2013-02-27 15:08:00,48.2,10.1,30.18,SSW,198,3.1,17.0,21,0.00,,---,0.00,VWS V14.01,2013-02-27 22:08:00,
2013-02-27 15:13:00,48.9,8.5,30.18,NE,49,2.2,17.0,19,0.00,,---,0.00,VWS V14.01,2013-02-27 22:13:00,
2013-02-27 15:18:00,48.4,8.0,30.18,WNW,300,4.0,8.3,19,0.00,,---,0.00,VWS V14.01,2013-02-27 22:18:00,
2013-02-27 15:23:00,48.6,8.2,30.18,NW,321,0.0,8.3,19,0.00,,---,0.00,VWS V14.01,2013-02-27 22:23:00,
2013-02-27 15:28:00,47.8,7.6,30.21,WNW,297,5.4,8.3,19,0.00,,---,0.00,VWS V14.01,2013-02-27 22:28:00,
2013-02-27 15:33:00,46.8,6.7,30.21,North,1,3.1,6.3,19,0.00,,---,0.00,VWS V14.01,2013-02-27 22:33:00,
2013-02-27 15:38:00,46.4,9.6,30.21,NW,310,0.0,6.7,22,0.00,,---,0.00,VWS V14.01,2013-02-27 22:38:00,
2013-02-27 15:43:00,46.8,9.9,30.21,North,350,2.2,6.7,22,0.00,,---,0.00,VWS V14.01,2013-02-27 22:43:00,
2013-02-27 15:48:00,47.1,7.0,30.21,WSW,251,0.0,5.8,19,0.00,,---,0.00,VWS V14.01,2013-02-27 22:48:00,
2013-02-27 15:53:00,48.9,10.7,30.21,NE,36,2.2,5.8,21,0.00,,---,0.00,VWS V14.01,2013-02-27 22:53:00,
2013-02-27 15:58:00,47.1,7.0,30.18,North,11,3.1,5.8,19,0.00,,---,0.00,VWS V14.01,2013-02-27 22:58:00,
2013-02-27 16:03:00,47.1,7.0,30.18,ENE,71,4.9,5.4,19,0.00,,---,0.00,VWS V14.01,2013-02-27 23:03:00,
2013-02-27 16:08:00,47.3,7.1,30.18,East,94,5.8,6.3,19,0.00,,---,0.00,VWS V14.01,2013-02-27 23:08:00,
2013-02-27 16:13:00,47.1,7.0,30.18,ESE,117,0.0,8.3,19,0.00,,---,0.00,VWS V14.01,2013-02-27 23:13:00,
2013-02-27 16:18:00,47.8,7.6,30.18,North,8,2.2,4.9,19,0.00,,---,0.00,VWS V14.01,2013-02-27 23:18:00,
2013-02-27 16:23:00,46.9,6.8,30.18,North,357,0.0,5.8,19,0.00,,---,0.00,VWS V14.01,2013-02-27 23:23:00,
2013-02-27 16:28:00,45.9,7.1,30.21,NNE,15,2.7,5.8,20,0.00,,---,0.00,VWS V14.01,2013-02-27 23:28:00,
2013-02-27 16:33:00,44.8,6.2,30.21,NW,315,2.7,4.9,20,0.00,,---,0.00,VWS V14.01,2013-02-27 23:33:00,
2013-02-27 16:38:00,44.2,5.7,30.21,North,0,0.0,4.9,20,0.00,,---,0.00,VWS V14.01,2013-02-27 23:38:00,
2013-02-27 16:43:00,44.1,5.6,30.21,SE,136,0.0,4.9,20,0.00,,---,0.00,VWS V14.01,2013-02-27 23:43:00,
2013-02-27 16:48:00,44.2,5.7,30.21,East,92,0.0,2.2,20,0.00,,---,0.00,VWS V14.01,2013-02-27 23:48:00,
2013-02-27 16:53:00,44.4,5.9,30.21,North,0,4.9,4.9,20,0.00,,---,0.00,VWS V14.01,2013-02-27 23:53:00,
2013-02-27 16:58:00,44.4,5.9,30.21,SW,233,0.0,5.8,20,0.00,,---,0.00,VWS V14.01,2013-02-27 23:58:00,
2013-02-27 17:03:00,45.0,6.3,30.21,WSW,244,0.0,3.1,20,0.00,,---,0.00,VWS V14.01,2013-02-28 00:03:00,
2013-02-27 17:08:00,45.3,6.6,30.21,SSE,168,3.1,4.9,20,0.00,,---,0.00,VWS V14.01,2013-02-28 00:08:00,
2013-02-27 17:13:00,45.1,6.5,30.21,East,99,0.0,4.9,20,0.00,,---,0.00,VWS V14.01,2013-02-28 00:13:00,
2013-02-27 17:18:00,44.8,6.2,30.21,SW,223,0.0,0.0,20,0.00,,---,0.00,VWS V14.01,2013-02-28 00:18:00,
2013-02-27 17:23:00,44.6,6.0,30.21,SSE,157,2.7,4.0,20,0.00,,---,0.00,VWS V14.01,2013-02-28 00:23:00,
2013-02-27 17:28:00,44.2,5.7,30.21,WSW,251,0.0,4.9,20,0.00,,---,0.00,VWS V14.01,2013-02-28 00:28:00,
2013-02-27 17:33:00,43.7,5.3,30.21,NNW,340,0.0,0.0,20,0.00,,---,0.00,VWS V14.01,2013-02-28 00:33:00,
2013-02-27 17:38:00,43.3,5.0,30.21,North,353,0.0,0.0,20,0.00,,---,0.00,VWS V14.01,2013-02-28 00:38:00,
2013-02-27 17:43:00,42.8,4.5,30.21,North,357,0.0,3.6,20,0.00,,---,0.00,VWS V14.01,2013-02-28 00:43:00,
2013-02-27 17:48:00,42.6,5.4,30.21,WNW,303,3.1,4.0,21,0.00,,---,0.00,VWS V14.01,2013-02-28 00:48:00,
2013-02-27 17:53:00,42.3,5.1,30.21,NE,41,0.0,4.0,21,0.00,,---,0.00,VWS V14.01,2013-02-28 00:53:00,
2013-02-27 17:58:00,42.1,5.0,30.21,NE,52,0.0,4.0,21,0.00,,---,0.00,VWS V14.01,2013-02-28 00:58:00,
2013-02-27 18:03:00,41.5,4.5,30.21,NE,52,0.0,0.0,21,0.00,,---,0.00,VWS V14.01,2013-02-28 01:03:00,
2013-02-27 18:08:00,41.0,4.1,30.21,NE,52,0.0,0.0,21,0.00,,---,0.00,VWS V14.01,2013-02-28 01:08:00,
2013-02-27 18:13:00,40.5,3.6,30.21,SSW,213,0.0,3.1,21,0.00,,---,0.00,VWS V14.01,2013-02-28 01:13:00,
2013-02-27 18:18:00,40.5,3.6,30.21,SE,126,0.0,3.1,21,0.00,,---,0.00,VWS V14.01,2013-02-28 01:18:00,
2013-02-27 18:23:00,39.9,3.2,30.21,SE,126,0.0,3.1,21,0.00,,---,0.00,VWS V14.01,2013-02-28 01:23:00,
2013-02-27 18:28:00,39.0,2.4,30.21,East,84,0.0,3.1,21,0.00,,---,0.00,VWS V14.01,2013-02-28 01:28:00,
2013-02-27 18:33:00,38.7,2.1,30.21,East,84,0.0,0.0,21,0.00,,---,0.00,VWS V14.01,2013-02-28 01:33:00,
2013-02-27 18:38:00,37.9,4.4,30.21,East,84,0.0,0.0,24,0.00,,---,0.00,VWS V14.01,2013-02-28 01:38:00,
2013-02-27 18:43:00,37.4,3.9,30.21,SSE,152,0.0,0.0,24,0.00,,---,0.00,VWS V14.01,2013-02-28 01:43:00,
2013-02-27 18:48:00,36.7,3.3,30.21,SSE,152,0.0,0.0,24,0.00,,---,0.00,VWS V14.01,2013-02-28 01:48:00,
2013-02-27 18:53:00,36.3,3.0,30.21,SSE,152,0.0,0.0,24,0.00,,---,0.00,VWS V14.01,2013-02-28 01:53:00,
2013-02-27 18:58:00,35.8,2.5,30.21,NE,47,0.0,0.0,24,0.00,,---,0.00,VWS V14.01,2013-02-28 01:58:00,
2013-02-27 19:03:00,35.1,2.8,30.21,NE,47,0.0,0.0,25,0.00,,---,0.00,VWS V14.01,2013-02-28 02:03:00,
2013-02-27 19:08:00,34.5,2.3,30.21,SW,235,0.0,0.0,25,0.00,,---,0.00,VWS V14.01,2013-02-28 02:08:00,
2013-02-27 19:13:00,34.0,3.5,30.21,WSW,254,2.2,4.5,27,0.00,,---,0.00,VWS V14.01,2013-02-28 02:13:00,
2013-02-27 19:18:00,32.7,3.2,30.21,WNW,284,0.0,0.0,28,0.00,,---,0.00,VWS V14.01,2013-02-28 02:18:00,
2013-02-27 19:23:00,32.2,2.8,30.21,West,273,0.0,0.0,28,0.00,,---,0.00,VWS V14.01,2013-02-28 02:23:00,
2013-02-27 19:28:00,31.8,3.9,30.21,SW,232,0.0,0.0,30,0.00,,---,0.00,VWS V14.01,2013-02-28 02:28:00,
2013-02-27 19:33:00,31.5,3.6,30.21,SSW,198,3.1,4.0,30,0.00,,---,0.00,VWS V14.01,2013-02-28 02:33:00,
2013-02-27 19:38:00,31.1,4.0,30.21,SW,236,0.0,4.0,31,0.00,,---,0.00,VWS V14.01,2013-02-28 02:38:00,
2013-02-27 19:43:00,30.2,3.2,30.21,WSW,237,0.0,4.0,31,0.00,,---,0.00,VWS V14.01,2013-02-28 02:43:00,
2013-02-27 19:48:00,30.0,3.8,30.21,West,277,0.0,0.0,32,0.00,,---,0.00,VWS V14.01,2013-02-28 02:48:00,
2013-02-27 19:53:00,29.8,3.6,30.21,West,275,0.0,0.0,32,0.00,,---,0.00,VWS V14.01,2013-02-28 02:53:00,
2013-02-27 19:58:00,29.5,3.9,30.21,WNW,291,0.0,0.0,33,0.00,,---,0.00,VWS V14.01,2013-02-28 02:58:00,
2013-02-27 20:03:00,28.8,3.3,30.21,SSW,207,5.4,5.4,33,0.00,,---,0.00,VWS V14.01,2013-02-28 03:03:00,
2013-02-27 20:08:00,28.4,3.6,30.21,SW,223,0.0,5.4,34,0.00,,---,0.00,VWS V14.01,2013-02-28 03:08:00,
2013-02-27 20:13:00,28.0,4.5,30.21,WNW,295,0.0,5.4,36,0.00,,---,0.00,VWS V14.01,2013-02-28 03:13:00,
2013-02-27 20:18:00,28.6,5.0,30.21,WNW,286,2.2,4.5,36,0.00,,---,0.00,VWS V14.01,2013-02-28 03:18:00,
2013-02-27 20:23:00,28.4,5.5,30.21,West,274,2.7,4.5,37,0.00,,---,0.00,VWS V14.01,2013-02-28 03:23:00,
2013-02-27 20:28:00,28.0,4.5,30.21,SSW,205,0.0,4.5,36,0.00,,---,0.00,VWS V14.01,2013-02-28 03:28:00,
2013-02-27 20:33:00,27.5,3.5,30.21,SSW,199,3.6,4.0,35,0.00,,---,0.00,VWS V14.01,2013-02-28 03:33:00,
2013-02-27 20:38:00,27.1,4.3,30.21,WSW,250,0.0,4.0,37,0.00,,---,0.00,VWS V14.01,2013-02-28 03:38:00,
2013-02-27 20:43:00,26.8,4.6,30.21,SW,220,0.0,4.0,38,0.00,,---,0.00,VWS V14.01,2013-02-28 03:43:00,
2013-02-27 20:48:00,26.8,4.6,30.21,WSW,252,0.0,4.0,38,0.00,,---,0.00,VWS V14.01,2013-02-28 03:48:00,
2013-02-27 20:53:00,27.3,5.6,30.21,WNW,302,0.0,4.0,39,0.00,,---,0.00,VWS V14.01,2013-02-28 03:53:00,
2013-02-27 20:58:00,27.0,5.9,30.24,West,271,3.6,4.0,40,0.00,,---,0.00,VWS V14.01,2013-02-28 03:58:00,
2013-02-27 21:03:00,27.7,6.0,30.24,West,269,0.0,3.6,39,0.00,,---,0.00,VWS V14.01,2013-02-28 04:03:00,
2013-02-27 21:08:00,27.3,5.1,30.24,SW,233,0.0,4.9,38,0.00,,---,0.00,VWS V14.01,2013-02-28 04:08:00,
2013-02-27 21:13:00,27.0,5.3,30.21,WSW,254,0.0,4.9,39,0.00,,---,0.00,VWS V14.01,2013-02-28 04:13:00,
2013-02-27 21:18:00,26.6,5.6,30.21,SSE,165,0.0,0.0,40,0.00,,---,0.00,VWS V14.01,2013-02-28 04:18:00,
2013-02-27 21:23:00,26.1,5.6,30.21,SSW,199,3.6,5.4,41,0.00,,---,0.00,VWS V14.01,2013-02-28 04:23:00,
2013-02-27 21:28:00,26.4,5.9,30.24,SSW,194,2.2,5.4,41,0.00,,---,0.00,VWS V14.01,2013-02-28 04:28:00,
2013-02-27 21:33:00,26.4,5.9,30.24,West,280,0.0,3.6,41,0.00,,---,0.00,VWS V14.01,2013-02-28 04:33:00,
2013-02-27 21:38:00,26.1,5.6,30.24,SSW,197,2.7,3.6,41,0.00,,---,0.00,VWS V14.01,2013-02-28 04:38:00,
2013-02-27 21:43:00,25.9,5.4,30.21,WSW,252,3.1,3.6,41,0.00,,---,0.00,VWS V14.01,2013-02-28 04:43:00,
2013-02-27 21:48:00,25.9,5.4,30.21,WSW,256,0.0,0.0,41,0.00,,---,0.00,VWS V14.01,2013-02-28 04:48:00,
2013-02-27 21:53:00,25.7,5.8,30.21,West,272,2.7,3.1,42,0.00,,---,0.00,VWS V14.01,2013-02-28 04:53:00,
2013-02-27 21:58:00,25.5,5.1,30.24,SSW,204,3.1,3.1,41,0.00,,---,0.00,VWS V14.01,2013-02-28 04:58:00,
2013-02-27 22:00:00,25.5,5.1,30.24,WSW,246,2.7,3.1,41,0.00,,---,0.00,VWS V14.01,2013-02-28 05:00:00,
2013-02-27 22:05:00,25.3,5.5,30.24,WNW,298,0.0,2.7,42,0.00,,---,0.00,VWS V14.01,2013-02-28 05:05:00,
2013-02-27 22:10:00,25.2,5.3,30.21,West,268,0.0,2.7,42,0.00,,---,0.00,VWS V14.01,2013-02-28 05:10:00,
2013-02-27 22:15:00,25.2,5.3,30.21,WNW,285,0.0,0.0,42,0.00,,---,0.00,VWS V14.01,2013-02-28 05:15:00,
2013-02-27 22:20:00,25.2,5.3,30.21,WSW,240,0.0,4.0,42,0.00,,---,0.00,VWS V14.01,2013-02-28 05:20:00,
2013-02-27 22:25:00,25.0,5.1,30.24,WSW,248,0.0,4.0,42,0.00,,---,0.00,VWS V14.01,2013-02-28 05:25:00,
2013-02-27 22:30:00,25.3,5.5,30.24,NW,313,0.0,0.0,42,0.00,,---,0.00,VWS V14.01,2013-02-28 05:30:00,
2013-02-27 22:35:00,25.5,5.6,30.24,WNW,286,0.0,0.0,42,0.00,,---,0.00,VWS V14.01,2013-02-28 05:35:00,
2013-02-27 22:40:00,25.3,5.5,30.24,WNW,283,0.0,0.0,42,0.00,,---,0.00,VWS V14.01,2013-02-28 05:40:00,
2013-02-27 22:45:00,24.8,5.5,30.24,West,277,0.0,0.0,43,0.00,,---,0.00,VWS V14.01,2013-02-28 05:45:00,
2013-02-27 22:50:00,24.3,5.0,30.24,West,277,0.0,0.0,43,0.00,,---,0.00,VWS V14.01,2013-02-28 05:50:00,
2013-02-27 22:55:00,23.9,4.7,30.24,West,277,0.0,0.0,43,0.00,,---,0.00,VWS V14.01,2013-02-28 05:55:00,
2013-02-27 23:00:00,23.7,4.5,30.24,West,277,0.0,0.0,43,0.00,,---,0.00,VWS V14.01,2013-02-28 06:00:00,
2013-02-27 23:05:00,23.5,4.3,30.24,SW,234,0.0,0.0,43,0.00,,---,0.00,VWS V14.01,2013-02-28 06:05:00,
2013-02-27 23:10:00,23.4,4.2,30.24,WNW,285,0.0,0.0,43,0.00,,---,0.00,VWS V14.01,2013-02-28 06:10:00,
2013-02-27 23:15:00,23.4,4.2,30.24,WNW,286,0.0,0.0,43,0.00,,---,0.00,VWS V14.01,2013-02-28 06:15:00,
2013-02-27 23:20:00,23.0,4.3,30.24,West,263,0.0,0.0,44,0.00,,---,0.00,VWS V14.01,2013-02-28 06:20:00,
2013-02-27 23:25:00,23.0,4.3,30.24,WSW,241,0.0,0.0,44,0.00,,---,0.00,VWS V14.01,2013-02-28 06:25:00,
2013-02-27 23:30:00,23.2,4.5,30.24,WSW,246,0.0,0.0,44,0.00,,---,0.00,VWS V14.01,2013-02-28 06:30:00,
2013-02-27 23:36:00,23.5,4.8,30.24,West,262,3.1,3.6,44,0.00,,---,0.00,VWS V14.01,2013-02-28 06:36:00,
2013-02-27 23:41:00,24.1,5.8,30.21,WSW,247,3.6,5.4,45,0.00,,---,0.00,VWS V14.01,2013-02-28 06:41:00,
2013-02-27 23:46:00,25.0,6.2,30.21,South,185,5.4,5.4,44,0.00,,---,0.00,VWS V14.01,2013-02-28 06:46:00,
2013-02-27 23:51:00,26.6,7.6,30.21,SSW,198,7.6,8.1,44,0.00,,---,0.00,VWS V14.01,2013-02-28 06:51:00,
2013-02-27 23:56:00,28.0,8.4,30.21,SSW,196,6.3,8.1,43,0.00,,---,0.00,VWS V14.01,2013-02-28 06:56:00,